• In Latvia
  • List of Countries
  • For 7 days
  • Water Temperature
  • Satellite Maps
  • Weather Map
  • Weather Widgets
  • user-avatar
    Login

    Hourly Weather Selidovo

    Today, 24 June, Sunday

    Time Temperature Precipitation Wind Pressure Humidity
    00:00 +23°C° 1.1 mm 2 mps 740 mmHg 84%
    01:00 +23°C° 1.1 mm 2 mps 740 mmHg 86%
    02:00 +21°C° 1.1 mm 2 mps 740 mmHg 88%
    03:00 +21°C° 1.7 mm 3 mps 740 mmHg 89%
    04:00 +21°C° 1.7 mm 3 mps 741 mmHg 89%
    05:00 +20°C° 1.7 mm 4 mps 741 mmHg 90%
    06:00 +20°C° 0.9 mm 4 mps 741 mmHg 89%
    07:00 +19°C° 0.9 mm 5 mps 742 mmHg 88%
    08:00 +19°C° 0.9 mm 6 mps 742 mmHg 86%
    09:00 +19°C° 0 mm 6 mps 743 mmHg 81%
    10:00 +20°C° 0 mm 6 mps 743 mmHg 77%
    11:00 +21°C° 0 mm 5 mps 744 mmHg 72%
    12:00 +22°C° 0 mm 5 mps 744 mmHg 67%
    13:00 +23°C° 0 mm 5 mps 744 mmHg 62%
    14:00 +25°C° 0 mm 5 mps 745 mmHg 56%
    15:00 +23°C° 0 mm 4 mps 745 mmHg 56%
    16:00 +23°C° 0 mm 4 mps 745 mmHg 56%
    17:00 +23°C° 0 mm 4 mps 745 mmHg 55%
    18:00 +21°C° 0 mm 3 mps 746 mmHg 60%
    19:00 +20°C° 0 mm 3 mps 746 mmHg 65%
    20:00 +18°C° 0 mm 2 mps 746 mmHg 69%
    21:00 +18°C° 0 mm 2 mps 746 mmHg 72%
    22:00 +17°C° 0 mm 2 mps 747 mmHg 74%
    23:00 +16°C° 0 mm 2 mps 747 mmHg 77%

    Tomorrow, 25 June, Monday

    Time Temperature Precipitation Wind Pressure Humidity
    00:00 +16°C° 0 mm 2 mps 747 mmHg 79%
    01:00 +15°C° 0 mm 2 mps 747 mmHg 81%
    02:00 +15°C° 0 mm 2 mps 748 mmHg 83%
    03:00 +15°C° 0 mm 2 mps 748 mmHg 83%
    04:00 +16°C° 0 mm 2 mps 748 mmHg 82%
    05:00 +16°C° 0 mm 2 mps 748 mmHg 82%
    06:00 +17°C° 0 mm 2 mps 748 mmHg 75%
    07:00 +19°C° 0 mm 2 mps 748 mmHg 68%
    08:00 +21°C° 0 mm 2 mps 749 mmHg 61%
    09:00 +23°C° 0 mm 2 mps 749 mmHg 56%
    10:00 +24°C° 0 mm 2 mps 749 mmHg 51%
    11:00 +25°C° 0 mm 2 mps 749 mmHg 47%
    12:00 +25°C° 0 mm 2 mps 749 mmHg 45%
    13:00 +26°C° 0 mm 2 mps 749 mmHg 43%
    14:00 +26°C° 0 mm 3 mps 749 mmHg 42%
    15:00 +26°C° 0 mm 3 mps 748 mmHg 43%
    16:00 +26°C° 0 mm 3 mps 748 mmHg 45%
    17:00 +26°C° 0 mm 3 mps 748 mmHg 47%
    18:00 +24°C° 0 mm 3 mps 749 mmHg 52%
    19:00 +21°C° 0 mm 3 mps 749 mmHg 56%
    20:00 +20°C° 0 mm 3 mps 749 mmHg 61%
    21:00 +19°C° 0 mm 3 mps 749 mmHg 63%
    22:00 +18°C° 0 mm 3 mps 749 mmHg 65%
    23:00 +18°C° 0 mm 3 mps 749 mmHg 66%

    Day after tomorrow, 26 June, Tuesday

    Time Temperature Precipitation Wind Pressure Humidity
    00:00 +17°C° 0 mm 3 mps 749 mmHg 68%
    01:00 +17°C° 0 mm 4 mps 749 mmHg 70%
    02:00 +17°C° 0 mm 4 mps 748 mmHg 72%
    03:00 +17°C° 0 mm 4 mps 748 mmHg 73%
    04:00 +17°C° 0 mm 4 mps 748 mmHg 73%
    05:00 +17°C° 0 mm 4 mps 748 mmHg 73%
    06:00 +19°C° 0 mm 5 mps 748 mmHg 68%
    07:00 +21°C° 0 mm 5 mps 748 mmHg 63%
    08:00 +23°C° 0 mm 5 mps 748 mmHg 59%
    09:00 +25°C° 0 mm 5 mps 748 mmHg 56%
    10:00 +26°C° 0 mm 5 mps 748 mmHg 54%
    11:00 +28°C° 0 mm 5 mps 748 mmHg 52%
    12:00 +28°C° 0 mm 6 mps 747 mmHg 51%
    13:00 +29°C° 0 mm 6 mps 747 mmHg 51%
    14:00 +30°C° 0 mm 6 mps 747 mmHg 50%
    15:00 +30°C° 0 mm 6 mps 746 mmHg 52%
    16:00 +29°C° 0 mm 6 mps 746 mmHg 54%
    17:00 +29°C° 0 mm 6 mps 746 mmHg 56%
    18:00 +28°C° 0 mm 5 mps 746 mmHg 61%
    19:00 +26°C° 0 mm 5 mps 746 mmHg 66%
    20:00 +25°C° 0 mm 5 mps 746 mmHg 71%
    21:00 +23°C° 0.3 mm 5 mps 745 mmHg 73%
    22:00 +22°C° 0.3 mm 5 mps 745 mmHg 75%
    23:00 +22°C° 0.3 mm 5 mps 745 mmHg 77%

    27 June, Wednesday

    Time Temperature Precipitation Wind Pressure Humidity
    00:00 +21°C° 0.7 mm 5 mps 745 mmHg 79%
    01:00 +21°C° 0.7 mm 5 mps 744 mmHg 81%
    02:00 +21°C° 0.7 mm 5 mps 744 mmHg 83%
    03:00 +21°C° 0.2 mm 5 mps 744 mmHg 83%
    04:00 +21°C° 0.2 mm 4 mps 744 mmHg 83%
    05:00 +21°C° 0.2 mm 4 mps 744 mmHg 84%
    06:00 +23°C° 0 mm 4 mps 744 mmHg 77%
    07:00 +26°C° 0 mm 5 mps 744 mmHg 70%
    08:00 +28°C° 0 mm 5 mps 744 mmHg 63%
    09:00 +30°C° 0 mm 5 mps 744 mmHg 55%
    10:00 +33°C° 0 mm 5 mps 744 mmHg 46%
    11:00 +35°C° 0 mm 5 mps 744 mmHg 38%
    12:00 +36°C° 0 mm 6 mps 744 mmHg 35%
    13:00 +38°C° 0 mm 6 mps 743 mmHg 33%
    14:00 +38°C° 0 mm 6 mps 743 mmHg 30%
    15:00 +38°C° 0 mm 6 mps 743 mmHg 34%
    16:00 +37°C° 0 mm 5 mps 743 mmHg 37%
    17:00 +36°C° 0 mm 4 mps 743 mmHg 41%
    18:00 +34°C° 0 mm 4 mps 743 mmHg 44%
    19:00 +32°C° 0 mm 4 mps 743 mmHg 47%
    20:00 +29°C° 0 mm 4 mps 743 mmHg 50%
    21:00 +29°C° 0 mm 4 mps 743 mmHg 52%
    22:00 +28°C° 0 mm 5 mps 743 mmHg 53%
    23:00 +28°C° 0 mm 5 mps 743 mmHg 55%

    28 June, Thursday

    Time Temperature Precipitation Wind Pressure Humidity
    00:00 +27°C° 0 mm 5 mps 743 mmHg 56%
    01:00 +27°C° 0 mm 5 mps 742 mmHg 58%
    02:00 +26°C° 0 mm 4 mps 742 mmHg 59%
    03:00 +26°C° 0 mm 4 mps 742 mmHg 61%
    04:00 +25°C° 0 mm 4 mps 742 mmHg 62%
    05:00 +25°C° 0 mm 3 mps 742 mmHg 63%
    06:00 +27°C° 0 mm 4 mps 743 mmHg 57%
    07:00 +29°C° 0 mm 4 mps 743 mmHg 51%
    08:00 +32°C° 0 mm 4 mps 743 mmHg 45%
    09:00 +34°C° 0 mm 4 mps 743 mmHg 41%
    10:00 +36°C° 0 mm 4 mps 743 mmHg 37%
    11:00 +38°C° 0 mm 4 mps 743 mmHg 32%
    12:00 +39°C° 0 mm 5 mps 743 mmHg 31%
    13:00 +40°C° 0 mm 5 mps 743 mmHg 30%
    14:00 +40°C° 0 mm 5 mps 743 mmHg 29%
    15:00 +40°C° 0 mm 4 mps 742 mmHg 31%
    16:00 +38°C° 0 mm 4 mps 742 mmHg 34%
    17:00 +38°C° 0 mm 3 mps 742 mmHg 37%
    18:00 +36°C° 0 mm 3 mps 742 mmHg 40%
    19:00 +34°C° 0 mm 2 mps 742 mmHg 44%
    20:00 +30°C° 0 mm 2 mps 742 mmHg 47%
    21:00 +29°C° 0.2 mm 2 mps 742 mmHg 50%
    22:00 +28°C° 0.2 mm 1 mps 742 mmHg 52%
    23:00 +27°C° 0.2 mm 1 mps 742 mmHg 55%

    29 June, Friday

    Time Temperature Precipitation Wind Pressure Humidity
    00:00 +27°C° 0.1 mm 1 mps 742 mmHg 56%
    01:00 +27°C° 0.1 mm 1 mps 742 mmHg 56%
    02:00 +26°C° 0.1 mm 1 mps 741 mmHg 57%
    03:00 +26°C° 0.2 mm 2 mps 741 mmHg 59%
    04:00 +26°C° 0.2 mm 2 mps 741 mmHg 60%
    05:00 +25°C° 0.2 mm 3 mps 741 mmHg 61%
    06:00 +27°C° 0.3 mm 3 mps 741 mmHg 57%
    07:00 +28°C° 0.3 mm 3 mps 742 mmHg 53%
    08:00 +30°C° 0.3 mm 4 mps 742 mmHg 49%
    09:00 +33°C° 0 mm 4 mps 742 mmHg 44%
    10:00 +35°C° 0 mm 5 mps 741 mmHg 39%
    11:00 +36°C° 0 mm 5 mps 741 mmHg 35%
    12:00 +37°C° 0 mm 5 mps 741 mmHg 32%
    13:00 +39°C° 0 mm 5 mps 741 mmHg 30%
    14:00 +40°C° 0 mm 5 mps 740 mmHg 28%
    15:00 +40°C° 0 mm 4 mps 740 mmHg 30%
    16:00 +39°C° 0 mm 3 mps 740 mmHg 32%
    17:00 +39°C° 0 mm 2 mps 740 mmHg 34%
    18:00 +36°C° 0.1 mm 2 mps 740 mmHg 38%
    19:00 +34°C° 0.1 mm 2 mps 740 mmHg 42%
    20:00 +31°C° 0.1 mm 2 mps 739 mmHg 46%
    21:00 +30°C° 0.2 mm 2 mps 739 mmHg 50%
    22:00 +29°C° 0.2 mm 2 mps 739 mmHg 55%
    23:00 +28°C° 0.2 mm 2 mps 739 mmHg 60%
    Show more